Weather History for Bogalusa, LA

Change the Weather History Date:

Friday, November 1, 2013

  Actual Average Record
Temperature  
Mean Temperature 64 °F -  
Max Temperature 78 °F 75 °F 78 °F (2013)
Min Temperature 52 °F 53 °F 36 °F (2014)
Growing Degree Days 14 (Base 50)    
Moisture  
Dew Point 57 °F    
Average Humidity 74    
Maximum Humidity 91    
Minimum Humidity 36    
Precipitation  
Precipitation 0.00 in - - ()
Sea Level Pressure  
Sea Level Pressure 29.90 in    
Wind  
Wind Speed 3 mph (NNW)    
Max Wind Speed 9 mph    
Max Gust Speed -    
Visibility 10 miles    
Events Thunderstorm    
Averages and records for this station are not official NWS values.
T = Trace of Precipitation, MM = Missing Value Source: NWS Daily Summary

Daily Weather History Graph

Daily Weather History Graph

Search for Another Location

Airport:

Trip Planner

Search our weather history database for the weather conditions in past years. The results will help you decide how hot, cold, wet, or windy it might be!

Date:

Astronomy

Nov. 01, 2013 Rise Set
Actual Time 7:14 AM CDT 6:10 PM CDT
Civil Twilight 6:49 AM CDT 6:35 PM CDT
Nautical Twilight 6:21 AM CDT 7:04 PM CDT
Astronomical Twilight 5:52 AM CDT 7:32 PM CDT
Moon 5:14 AM CDT (11/1) 4:58 PM CDT (11/1)
Length of Visible Light 11h 46m
Length of Day
10h 56m
Waning Crescent, 4% of the Moon is Illuminated
Nov 1
Waning Crescent
Nov 3
New
Nov 9
First Quarter
Nov 17
Full
Nov 25
Last Quarter

Hourly Weather History & Observations

Time (CDT) Temp. Dew Point Humidity Pressure Visibility Wind Dir Wind Speed Gust Speed Precip Events Conditions
12:15 AM 69.8 °F 66.9 °F 91% 29.87 in 10.0 mi North - - N/A   Overcast
12:35 AM 70.0 °F 67.1 °F 91% 29.87 in 10.0 mi Calm Calm - N/A   Overcast
1:15 AM 70.0 °F 67.1 °F 91% 29.87 in 5.0 mi North - - N/A   Drizzle
4:35 AM 66.7 °F 62.8 °F 87% 29.86 in 10.0 mi North 3.5 mph - N/A   Overcast
4:55 AM 66.6 °F 62.6 °F 87% 29.87 in 10.0 mi Calm Calm - N/A   Overcast
5:15 AM 66.2 °F 62.1 °F 86% 29.87 in 10.0 mi NW 4.6 mph - N/A   Overcast
5:35 AM 65.7 °F 61.7 °F 87% 29.88 in 10.0 mi NNW 4.6 mph - N/A   Overcast
5:55 AM 65.5 °F 61.7 °F 88% 29.88 in 10.0 mi NNW 4.6 mph - N/A Thunderstorm Unknown
6:15 AM 65.3 °F 61.7 °F 88% 29.88 in 10.0 mi NNW 4.6 mph - N/A   Unknown
6:35 AM 65.3 °F 61.2 °F 86% 29.88 in 10.0 mi NNW 4.6 mph - N/A   Unknown
6:55 AM 64.9 °F 61.0 °F 87% 29.88 in 10.0 mi North 5.8 mph - N/A   Unknown
7:15 AM 64.8 °F 60.8 °F 87% 29.89 in 10.0 mi North 5.8 mph - N/A   Unknown
7:35 AM 64.6 °F 60.6 °F 87% 29.89 in 10.0 mi North 4.6 mph - N/A   Unknown
7:55 AM 64.6 °F 60.6 °F 87% 29.90 in 10.0 mi Calm Calm - N/A   Clear
8:15 AM 64.4 °F 60.3 °F 86% 29.90 in 10.0 mi NNW 3.5 mph - N/A   Clear
8:35 AM 65.5 °F 61.0 °F 85% 29.90 in 10.0 mi Calm Calm - N/A   Unknown
8:55 AM 65.5 °F 60.8 °F 85% 29.91 in 10.0 mi North 6.9 mph - N/A   Unknown
9:15 AM 66.2 °F 60.4 °F 82% 29.92 in 10.0 mi North 4.6 mph - N/A   Unknown
9:35 AM 66.4 °F 59.5 °F 79% 29.92 in 10.0 mi North 5.8 mph - N/A   Unknown
9:55 AM 67.5 °F 59.5 °F 76% 29.92 in 10.0 mi Calm Calm - N/A   Unknown
10:15 AM 68.4 °F 59.9 °F 74% 29.92 in 10.0 mi North 4.6 mph - N/A   Unknown
10:35 AM 69.4 °F 59.2 °F 70% 29.92 in 10.0 mi North - - N/A   Unknown
10:55 AM 71.1 °F 58.8 °F 65% 29.92 in 10.0 mi Calm Calm - N/A   Unknown
11:15 AM 71.6 °F 58.6 °F 64% 29.91 in 10.0 mi NNW 3.5 mph - N/A   Unknown
11:35 AM 71.8 °F 58.3 °F 62% 29.91 in 10.0 mi Calm Calm - N/A   Unknown
11:55 AM 73.2 °F 57.9 °F 59% 29.91 in 10.0 mi North 3.5 mph - N/A   Clear
12:15 PM 73.6 °F 56.7 °F 55% 29.91 in 10.0 mi Calm Calm - N/A   Clear
12:35 PM 75.0 °F 56.3 °F 52% 29.90 in 10.0 mi WNW 4.6 mph - N/A   Unknown
12:55 PM 75.2 °F 55.4 °F 50% 29.89 in 10.0 mi Calm Calm - N/A   Unknown
1:15 PM 75.6 °F 54.7 °F 48% 29.87 in 10.0 mi Calm Calm - N/A   Unknown
1:35 PM 76.6 °F 54.3 °F 46% 29.87 in 10.0 mi North - - N/A   Unknown
1:55 PM 76.8 °F 52.7 °F 43% 29.86 in 10.0 mi Calm Calm - N/A   Unknown
2:15 PM 77.7 °F 52.7 °F 42% 29.85 in 10.0 mi West 5.8 mph - N/A   Unknown
2:35 PM 77.9 °F 54.1 °F 44% 29.84 in 10.0 mi WNW 5.8 mph - N/A   Unknown
2:55 PM 77.2 °F 51.3 °F 40% 29.84 in 10.0 mi WNW 8.1 mph - N/A   Unknown
3:15 PM 77.9 °F 51.8 °F 40% 29.83 in 10.0 mi WNW 9.2 mph - N/A   Unknown
5:15 PM 75.2 °F 46.8 °F 36% 29.84 in 10.0 mi NNW 8.1 mph - N/A   Clear
5:35 PM 73.2 °F 49.3 °F 43% 29.85 in 10.0 mi NNW 4.6 mph - N/A   Clear
5:55 PM 70.2 °F 53.1 °F 55% 29.86 in 10.0 mi NNW 3.5 mph - N/A   Clear
6:15 PM 67.5 °F 54.1 °F 62% 29.87 in 10.0 mi NNW 4.6 mph - N/A   Clear
6:35 PM 64.8 °F 55.4 °F 72% 29.87 in 10.0 mi NNW 4.6 mph - N/A   Unknown
6:55 PM 63.1 °F 54.0 °F 72% 29.89 in 10.0 mi NNW 4.6 mph - N/A   Unknown
7:15 PM 63.0 °F 54.3 °F 73% 29.90 in 10.0 mi NNW 4.6 mph - N/A   Unknown
7:35 PM 61.2 °F 55.6 °F 82% 29.90 in 10.0 mi Calm Calm - N/A   Unknown
7:55 PM 60.3 °F 54.7 °F 82% 29.91 in 10.0 mi Calm Calm - N/A   Unknown
8:15 PM 58.1 °F 54.1 °F 87% 29.92 in 10.0 mi Calm Calm - N/A   Unknown
8:35 PM 56.7 °F 52.9 °F 87% 29.92 in 10.0 mi North - - N/A   Unknown
8:55 PM 57.2 °F 53.2 °F 87% 29.93 in 10.0 mi Calm Calm - N/A   Unknown
9:15 PM 56.7 °F 53.4 °F 89% 29.93 in 10.0 mi Calm Calm - N/A   Unknown
9:35 PM 55.4 °F 52.2 °F 89% 29.94 in 10.0 mi Calm Calm - N/A   Unknown
9:55 PM 55.6 °F 52.5 °F 89% 29.94 in 10.0 mi Calm Calm - N/A   Unknown
10:15 PM 54.7 °F 51.8 °F 90% 29.95 in 10.0 mi Calm Calm - N/A   Unknown
10:35 PM 54.5 °F 51.8 °F 91% 29.96 in 10.0 mi Calm Calm - N/A   Unknown
10:55 PM 52.0 °F 49.3 °F 90% 29.96 in 10.0 mi Calm Calm - N/A   Unknown
11:15 PM 53.1 °F 50.2 °F 90% 29.97 in 10.0 mi Calm Calm - N/A   Unknown
11:35 PM 52.7 °F 49.8 °F 90% 29.97 in 10.0 mi Calm Calm - N/A   Unknown
11:55 PM 52.7 °F 49.8 °F 90% 29.97 in 7.0 mi Calm Calm - N/A   Clear